Weather observations for the past three days for
Salem - McNary Field
Imperial (Metric)
Date Time (pdt) Wind (mph) Vis. (mi.) Weather Sky Cond. Temperature (ºF) Relative Humidity Wind Chill (°F) Heat Index (°F) Pressure Precipitation (in)
Air Dwpt 6 hour altimeter (in) sea level (mb) 1 hr 3 hr 6 hr
Max. Min.
10 14:56 Vrbl 5 10.00 Mostly Cloudy BKN038 69.1 50 51% 30.1 1019.3
10 13:56 SE 6 10.00 Mostly Cloudy BKN033 BKN041 64.9 50 59% 30.11 1019.6
10 12:56 SE 7 10.00 Overcast BKN024 OVC033 63 50 63% 30.11 1019.6
10 11:56 S 3 10.00 Overcast BKN024 OVC035 62.1 48 60% 30.11 1019.5
10 10:56 E 6 10.00 Mostly Cloudy BKN019 BKN035 62.1 48 63 50 60% 30.1 1019.2
10 09:56 Vrbl 5 10.00 Mostly Cloudy BKN025 61 48.9 65% 30.09 1019.0
10 08:56 W 6 10.00 Fair CLR 57 48 72% 30.09 1018.8
10 07:56 Calm 10.00 Fair CLR 54 48 80% 30.07 1018.3
10 06:56 W 6 10.00 Fair CLR 53.1 46.9 80% 30.06 1017.7
10 05:56 Calm 10.00 Fair CLR 52 48 86% 30.04 1017.2
10 04:56 W 7 10.00 Fair CLR 53.1 48 61 53.1 83% 30.04 1017.2
10 03:56 W 8 10.00 Fair CLR 54 48 80% 30.04 1017.1
10 02:56 W 6 10.00 Fair CLR 55 48 77% 30.01 1016.1
10 01:56 W 7 10.00 Fair CLR 55.9 48.9 77% 30 1016.0
10 00:56 Calm 10.00 Fair CLR 57.9 48.9 72% 30 1015.8
09 23:56 W 6 10.00 Fair CLR 60.1 48 65% 29.99 1015.7
09 22:56 Calm 10.00 Fair CLR 60.1 48.9 78.1 60.1 67% 29.98 1015.3
09 21:56 W 5 10.00 Fair CLR 66 48.9 54% 29.98 1015.0
09 20:56 W 5 10.00 Fair CLR 68 48.9 51% 29.96 1014.3
09 19:56 Calm 10.00 Fair CLR 73 46 38% 29.94 1013.8
09 18:56 NE 3 10.00 Fair CLR 75.9 45 33% 77 29.94 1013.9
09 17:56 NE 3 10.00 Fair CLR 77 42.1 29% 78 29.96 1014.4
09 16:56 NW 7 10.00 Fair CLR 78.1 46 78.1 64 32% 78 29.97 1014.8
09 15:56 N 7 10.00 Fair CLR 77 46.9 35% 78 29.99 1015.5
09 14:56 NW 10 G 22 10.00 Fair CLR 75 46.9 37% 77 30.01 1016.3
09 13:56 N 5 G 16 10.00 Fair CLR 72 50 46% 30.04 1017.0
09 12:56 N 7 10.00 Fair CLR 70 50 49% 30.06 1017.8
09 11:56 NW 10 10.00 Fair CLR 68 51.1 55% 30.08 1018.5
09 10:56 N 6 10.00 Fair CLR 64 48.9 64 45 58% 30.09 1018.9
09 09:56 N 7 10.00 Fair CLR 60.1 50 70% 30.11 1019.5
09 08:56 N 8 10.00 Fair CLR 55.9 48 75% 30.13 1020.1
09 07:56 N 5 10.00 Fair CLR 53.1 48 83% 30.14 1020.7
09 06:56 Calm 10.00 Fair CLR 48 46 93% 30.14 1020.7
09 05:56 Calm 10.00 Fair CLR 46.9 45 93% 30.14 1020.4
09 04:56 Calm 10.00 Fair CLR 46.9 45 57.9 46.9 93% 30.15 1020.8
09 03:56 N 5 10.00 Fair CLR 51.1 46.9 86% 30.15 1020.9
09 02:56 N 3 10.00 Fair CLR 50 46.9 89% 30.16 1021.1
09 01:56 N 5 10.00 Fair CLR 53.1 48 83% 30.16 1021.4
09 00:56 N 5 10.00 Fair CLR 53.1 46.9 80% 30.17 1021.7
08 23:56 W 3 10.00 Fair CLR 55.9 46.9 72% 30.17 1021.6
08 22:56 W 7 10.00 Mostly Cloudy BKN050 57.9 48 69.1 57.9 70% 30.17 1021.7
08 21:56 SW 5 10.00 Partly Cloudy SCT050 59 48.9 69% 30.17 1021.4
08 20:56 Calm 10.00 Partly Cloudy SCT050 61 48 63% 30.15 1021.1
08 19:56 NW 6 10.00 Fair CLR 63 48 58% 30.14 1020.6
08 18:56 N 9 10.00 Mostly Cloudy BKN046 66.9 48 51% 30.14 1020.5
08 17:56 NW 7 10.00 Partly Cloudy SCT047 68 46.9 47% 30.15 1020.9
08 16:56 W 8 10.00 Fair CLR 66.9 46 68 57 47% 30.15 1021.0
08 15:56 Vrbl 6 10.00 Fair CLR 66.9 45 45% 30.16 1021.2
08 14:56 W 8 10.00 Fair CLR 66 43 43% 30.17 1021.5
08 13:56 SW 7 10.00 Fair CLR 64 42.1 45% 30.17 1021.5
08 12:56 Vrbl 5 10.00 Partly Cloudy SCT039 62.1 42.1 48% 30.18 1021.8
08 11:56 Calm 10.00 Overcast OVC035 57.9 42.1 56% 30.18 1022.0
08 10:56 S 8 10.00 Mostly Cloudy BKN031 57.9 42.1 57.9 46 56% 30.18 1021.9
08 09:56 SW 9 10.00 Overcast BKN026 OVC031 54 43 67% 30.17 1021.7
08 08:56 SE 8 10.00 Partly Cloudy SCT023 53.1 44.1 72% 30.15 1020.9
08 07:56 SE 12 10.00 Fair CLR 48.9 44.1 83% 45 30.15 1021.1
08 06:56 S 3 10.00 Fair CLR 48.9 43 80% 30.16 1021.1
08 05:56 Calm 10.00 Fair CLR 46.9 42.1 83% 30.12 1020.0
08 04:56 W 8 10.00 Fair CLR 48.9 42.1 57 48 77% 46 30.1 1019.3
08 03:56 W 6 10.00 Fair CLR 50 42.1 74% 48 30.07 1018.3
08 02:56 Calm 10.00 Fair CLR 50 44.1 80% 30.06 1017.8
08 01:56 W 5 10.00 Fair CLR 52 43 72% 30.04 1017.4
08 00:56 W 5 10.00 Fair CLR 53.1 43 69% 30.03 1017.0
07 23:56 SW 3 10.00 Fair CLR 54 44.1 69% 30.03 1016.8
07 22:56 SW 3 10.00 Fair CLR 57 44.1 72 55.9 62% 30.02 1016.6
07 21:56 W 5 10.00 Fair CLR 57.9 43 58% 30.02 1016.5
07 20:56 NW 6 10.00 Fair CLR 60.1 46 60% 30.01 1016.0
07 19:56 E 3 10.00 Fair CLR 66.9 42.1 41% 29.99 1015.3
07 18:56 E 6 10.00 Fair CLR 70 43 38% 29.98 1015.3
07 17:56 NE 7 10.00 Fair CLR 72 41 33% 30 1015.8
07 16:56 E 7 10.00 Fair CLR 72 39.9 72 59 31% 30.01 1016.1
07 15:56 Vrbl 3 10.00 Fair CLR 71.1 39.9 32% 30.03 1016.9
Date Time (pdt) Wind (mph) Vis. (mi.) Weather Sky Cond. Air Dwpt Max. Min. Relative Humidity Wind Chill (°F) Heat Index (°F) altimeter (in) sea level (mb) 1 hr 3 hr 6 hr
6 hour
Temperature (ºF) Pressure Precipitation (in)